Location: Tehran
(35.6961°N, 51.4231°E)
Time: 00:20:04
(UTC+04:30)

ISS - Visible Passes

Search period start: 23 May 2018 00:00
Search period end: 02 June 2018 00:00
Orbit: 402 x 407 km, 51.6° (Epoch: 23 May)

Date Brightness Start Highest point End Pass type
(mag) Time Alt. Az. Time Alt. Az. Time Alt. Az.
23 May -1.2 03:16:54 10° NNW 03:19:31 22° NNE 03:22:08 10° E visible
23 May -3.2 04:53:04 10° WNW 04:56:03 33° SW 04:59:01 10° SSE visible
23 May -1.4 21:31:09 10° W 21:33:56 25° NNW 21:36:44 10° NNE visible
24 May -0.4 02:25:21 10° N 02:30:57 - E 02:25:36 11° N visible
24 May -3.9 04:04:18 67° SSE 04:04:18 67° SSE 04:07:12 10° SE visible
24 May -2.6 20:38:31 10° WSW 20:41:41 47° NW 20:44:50 10° NE visible
25 May -0.6 21:24:34 10° WNW 21:26:19 14° NNW 21:28:05 10° N visible
30 May -0.6 23:33:01 10° N 23:33:52 12° NNE 23:33:52 12° NNE visible
01 Jun -1.0 23:24:05 10° NNW 23:25:21 17° N 23:25:21 17° N visible
